Location: Bergen
(60.3910°N, 5.3250°E)
Time: 08:57:21
(UTC+02:00)

ISS - Pass Details

Date: 27 March 2019
Orbit: 408 x 410 km, 51.6° (Epoch: 21 April)

Event Time Altitude Azimuth Distance (km) Brightness Sun altitude
Rises 20:08:43 0° 227° (SW) 2,334 0.4 -7.9°
Reaches altitude 10° 20:11:22 10° 205° (SSW) 1,474 -0.9 -8.2°
Maximum altitude 20:13:26 16° 166° (SSE) 1,178 -1.8 -8.4°
Enters shadow 20:15:16 11° 131° (SE) 1,414 -1.7 -8.6°
